Flag Weather past 2 weeks in Kaliningrad, Russia

Now
37 °F

Passing clouds.


Feels Like: 33 °F
Forecast: 38 / 51 °F
Wind: 6 mph from West

Location: Kaliningrad/Khrabrovo Airport

Current Time: Oct 30, 2014 at 9:25:40 PM

Latest Report: Oct 30, 2014 at 9:00 PM


Visibility: 4 mi

Pressure: 30.27 "Hg

Humidity: 93%

Dew point: 36 °F

Location of KaliningradLocation

Historic Weather in Kaliningrad — Graph

°F

Kaliningrad temperature yesterday

Maximum temperature yesterday: 57 °F (at 1:30 PM)
Minimum temperature yesterday: 34 °F (at 5:00 AM)
Average temperature yesterday: 43 °F

Past Weeks' High & Low Weather Summary

 TemperatureHumidityPressure
High64 °F (Oct 19, 4:30 PM)94% (Oct 15, 11:30 PM)30.45 "Hg (Oct 15, 11:30 PM)
Low25 °F (Oct 24, 8:30 AM)29% (Oct 29, 2:00 PM)29.59 "Hg (Oct 20, 11:00 AM)
Average45 °F74%30.05 "Hg
* Reported Oct 15 9:00 PM — Oct 30 8:00 PM, Kaliningrad, Weather by CustomWeather, © 2014

Note: Actual official high and low records may vary slightly from our data, if they occured in-between our weather recording intervals... More about our weather records

Advertising

Kaliningrad weather history for previous 24 hours

 ConditionsComfort  
Time TempWeatherWind HumidityBarometerVisibility
8:00 PM
Oct 30
37 °FPassing clouds.3 mph93%30.24 "Hg4 mi
7:30 PM37 °FPassing clouds.6 mph93%30.24 "Hg4 mi
7:00 PM37 °FBroken clouds.3 mph87%30.24 "HgN/A
6:30 PM39 °FBroken clouds.1 mph87%30.24 "HgN/A
6:00 PM41 °FBroken clouds.3 mph81%30.24 "HgN/A
5:30 PM45 °FBroken clouds.1 mph76%30.21 "HgN/A
5:00 PM46 °FBroken clouds.3 mph76%30.21 "HgN/A
4:30 PM48 °FBroken clouds.3 mph71%30.21 "HgN/A
4:00 PM50 °FScattered clouds.6 mph71%30.21 "HgN/A
3:30 PM50 °FScattered clouds.6 mph71%30.18 "HgN/A
3:00 PM50 °FBroken clouds.6 mph76%30.18 "HgN/A
2:30 PM50 °FBroken clouds.6 mph71%30.18 "HgN/A
2:00 PM50 °FBroken clouds.6 mph76%30.18 "HgN/A
1:30 PM50 °FBroken clouds.8 mph76%30.15 "HgN/A
1:00 PM52 °FBroken clouds.8 mph77%30.15 "HgN/A
12:30 PM50 °FFog.6 mph82%30.15 "Hg3 mi
12:00 PM48 °FFog.6 mph87%30.15 "Hg2 mi
11:30 AM46 °FFog.8 mph87%30.15 "Hg2 mi
11:00 AM46 °FFog.8 mph87%30.15 "Hg2 mi
10:30 AM45 °FFog.8 mph87%30.12 "Hg2 mi
10:00 AM45 °FFog.8 mph87%30.12 "Hg2 mi
9:30 AM43 °FFog.8 mph87%30.12 "Hg2 mi
9:00 AM43 °FFog.6 mph87%30.12 "Hg3 mi
8:30 AM43 °FFog.8 mph87%30.12 "Hg3 mi
8:00 AM41 °FFog.6 mph87%30.12 "Hg3 mi
7:30 AM39 °FFog.6 mph87%30.09 "Hg3 mi
7:00 AM39 °FFog.3 mph87%30.09 "Hg3 mi
6:30 AM39 °FFog.8 mph81%30.09 "Hg3 mi
6:00 AM37 °FFog.6 mph87%30.09 "Hg3 mi
5:30 AM37 °FFog.6 mph87%30.09 "Hg3 mi
5:00 AM36 °FFog.6 mph87%30.09 "Hg3 mi
4:30 AM36 °FClear.6 mph87%30.09 "Hg4 mi
4:00 AM34 °FClear.6 mph87%30.09 "Hg4 mi
3:00 AM34 °FClear.6 mph81%30.09 "Hg4 mi
2:00 AM36 °FClear.3 mph81%30.09 "Hg4 mi
1:00 AM37 °FClear.3 mph75%30.09 "Hg4 mi
12:00 AM39 °FClear.6 mph70%30.09 "Hg10 mi
11:00 PM
Oct 29
39 °FClear.6 mph70%30.09 "Hg10 mi
10:30 PM41 °FClear.6 mph66%30.09 "Hg10 mi
10:00 PM41 °FClear.8 mph66%30.07 "Hg10 mi
9:30 PM39 °FClear.8 mph75%30.07 "Hg10 mi
9:00 PM39 °FClear.8 mph70%30.07 "Hg10 mi
Weather by CustomWeather, © 2014

See weather overviewHow to use our weather pages